Weather History for KOXI - June, 2013

Change the Weather History Date:

Sunday, June 16, 2013

  Actual Average (KVPZ) Record (KVPZ)
Temperature  
Mean Temperature 73 °F 70 °F  
Max Temperature 80 °F 80 °F 93 °F (2007)
Min Temperature 66 °F 59 °F 51 °F (1999)
Cooling Degree Days 8 6  
Month to date cooling degree days 68  
Year to date cooling degree days 115  
Since 1 June cooling degree days 68  
Growing Degree Days 23 (Base 50)    
Moisture  
Dew Point 67 °F    
Average Humidity 83    
Maximum Humidity 98    
Minimum Humidity 64    
Precipitation  
Precipitation 0.00 in 0.11 in 0.96 in (2012)
Month to date precipitation 2.09  
Year to date precipitation 15.07  
Sea Level Pressure  
Sea Level Pressure 29.91 in    
Wind  
Wind Speed 10 mph (WSW)    
Max Wind Speed 22 mph    
Max Gust Speed 29 mph    
Visibility 10 miles    
Events      
T = Trace of Precipitation, MM = Missing Value Source: NWS Daily Summary

Daily Weather History Graph

Daily Weather History Graph

Search for Another Location

Airport or City:

Trip Planner

Search our weather history database for the weather conditions in past years. The results will help you decide how hot, cold, wet, or windy it might be!

Date:

Astronomy

Jun. 16, 2013 Rise Set
Actual Time 5:12 AM CDT 8:22 PM CDT
Civil Twilight 4:38 AM CDT 8:56 PM CDT
Nautical Twilight 3:55 AM CDT 9:39 PM CDT
Astronomical Twilight 3:03 AM CDT 10:31 PM CDT
Moon 12:53 PM CDT (6/16) 12:22 AM CDT (6/16)
Length of Visible Light 16h 17m
Length of Day
15h 09m
Waxing Crescent, 50% of the Moon is Illuminated
Jun 16
Waxing Crescent
Jun 16
First Quarter
Jun 23
Full
Jun 29
Last Quarter
Jul 8
New

Hourly Weather History & Observations

Time (CDT) Temp. Heat Index Dew Point Humidity Pressure Visibility Wind Dir Wind Speed Gust Speed Precip Events Conditions
12:15 AM 70.9 °F - 66.4 °F 86% 29.91 in 10.0 mi SW 11.5 mph - N/A   Overcast
12:35 AM 71.6 °F - 66.2 °F 83% 29.91 in 10.0 mi WSW 15.0 mph - N/A   Overcast
12:55 AM 72.0 °F - 66.6 °F 83% 29.91 in 10.0 mi WSW 16.1 mph - N/A   Mostly Cloudy
1:15 AM 72.0 °F - 67.3 °F 85% 29.91 in 10.0 mi West 21.9 mph 28.8 mph N/A   Scattered Clouds
1:35 AM 71.4 °F - 67.6 °F 88% 29.90 in 10.0 mi West 15.0 mph - N/A   Scattered Clouds
1:55 AM 70.7 °F - 67.3 °F 89% 29.89 in 10.0 mi WSW 13.8 mph 19.6 mph N/A   Clear
2:15 AM 70.0 °F - 66.6 °F 89% 29.88 in 10.0 mi West 12.7 mph 17.3 mph N/A   Clear
2:35 AM 69.4 °F - 66.0 °F 89% 29.88 in 10.0 mi West 8.1 mph - N/A   Clear
2:55 AM 69.3 °F - 65.3 °F 87% 29.88 in 10.0 mi West 8.1 mph - N/A   Scattered Clouds
3:15 AM 68.5 °F - 65.3 °F 89% 29.89 in 10.0 mi West 5.8 mph - N/A   Mostly Cloudy
3:35 AM 68.2 °F - 65.5 °F 91% 29.89 in 10.0 mi Calm Calm - N/A   Overcast
3:55 AM 67.8 °F - 65.5 °F 92% 29.89 in 10.0 mi West 3.5 mph - N/A   Mostly Cloudy
4:15 AM 67.6 °F - 65.3 °F 92% 29.90 in 10.0 mi WSW 4.6 mph - N/A   Mostly Cloudy
4:35 AM 67.3 °F - 65.1 °F 93% 29.90 in 10.0 mi SW 4.6 mph - N/A   Mostly Cloudy
4:55 AM 66.7 °F - 64.8 °F 93% 29.90 in 10.0 mi SW 5.8 mph - N/A   Overcast
5:15 AM 67.1 °F - 64.4 °F 91% 29.90 in 10.0 mi SW 6.9 mph - N/A   Overcast
5:35 AM 67.3 °F - 64.4 °F 90% 29.90 in 10.0 mi SW 6.9 mph - N/A   Overcast
5:55 AM 67.1 °F - 64.4 °F 91% 29.91 in 10.0 mi SW 9.2 mph - N/A   Overcast
6:15 AM 66.9 °F - 64.6 °F 92% 29.91 in 10.0 mi WSW 8.1 mph - N/A   Overcast
6:35 AM 66.7 °F - 64.9 °F 94% 29.91 in 10.0 mi SW 6.9 mph - N/A   Overcast
6:55 AM 67.3 °F - 65.3 °F 93% 29.92 in 10.0 mi SW 8.1 mph - N/A   Mostly Cloudy
7:15 AM 67.6 °F - 65.5 °F 93% 29.92 in 10.0 mi WSW 9.2 mph - N/A   Scattered Clouds
7:35 AM 68.4 °F - 65.7 °F 91% 29.92 in 10.0 mi WSW 10.4 mph 16.1 mph N/A   Clear
7:55 AM 69.6 °F - 65.8 °F 88% 29.91 in 10.0 mi WSW 11.5 mph - N/A   Scattered Clouds
8:15 AM 70.5 °F - 66.4 °F 87% 29.92 in 10.0 mi WSW 12.7 mph 19.6 mph N/A   Scattered Clouds
8:35 AM 70.5 °F - 66.4 °F 87% 29.93 in 10.0 mi West 11.5 mph - N/A   Mostly Cloudy
8:55 AM 71.2 °F - 66.4 °F 85% 29.93 in 10.0 mi West 12.7 mph 18.4 mph N/A   Scattered Clouds
9:15 AM 72.1 °F - 67.1 °F 84% 29.93 in 10.0 mi West 9.2 mph - N/A   Scattered Clouds
9:35 AM 72.7 °F - 67.3 °F 83% 29.93 in 10.0 mi West 11.5 mph - N/A   Mostly Cloudy
9:55 AM 73.2 °F - 67.8 °F 83% 29.93 in 10.0 mi West 10.4 mph - N/A   Overcast
10:15 AM 73.6 °F - 67.8 °F 82% 29.93 in 10.0 mi West 8.1 mph - N/A   Overcast
10:35 AM 73.6 °F - 68.2 °F 83% 29.93 in 10.0 mi West 11.5 mph - N/A   Overcast
10:55 AM 73.9 °F - 68.2 °F 82% 29.93 in 10.0 mi West 9.2 mph - N/A   Overcast
11:15 AM 74.3 °F - 68.4 °F 82% 29.93 in 10.0 mi West 10.4 mph - N/A   Overcast
11:35 AM 74.1 °F - 68.5 °F 83% 29.94 in 10.0 mi West 10.4 mph - N/A   Overcast
11:55 AM 74.5 °F - 68.7 °F 82% 29.93 in 10.0 mi WSW 11.5 mph - N/A   Overcast
12:15 PM 73.8 °F - 68.5 °F 84% 29.94 in 10.0 mi West 11.5 mph - N/A   Overcast
12:35 PM 74.5 °F - 68.9 °F 83% 29.94 in 10.0 mi WSW 11.5 mph - N/A   Overcast
12:55 PM 74.5 °F - 69.3 °F 84% 29.94 in 10.0 mi WSW 10.4 mph - N/A   Overcast
1:15 PM 75.4 °F - 68.7 °F 80% 29.93 in 10.0 mi WSW 11.5 mph - N/A   Mostly Cloudy
1:35 PM 76.3 °F - 68.4 °F 76% 29.93 in 10.0 mi SW 11.5 mph - N/A   Mostly Cloudy
1:55 PM 77.0 °F - 68.9 °F 76% 29.93 in 10.0 mi WSW 13.8 mph - N/A   Scattered Clouds
2:15 PM 76.8 °F - 68.7 °F 76% 29.93 in 10.0 mi WSW 12.7 mph - N/A   Scattered Clouds
2:35 PM 77.7 °F - 69.3 °F 75% 29.93 in 10.0 mi SW 11.5 mph - N/A   Scattered Clouds
2:55 PM 78.4 °F - 69.3 °F 73% 29.93 in 10.0 mi West 11.5 mph 17.3 mph N/A   Scattered Clouds
3:15 PM 78.3 °F - 68.9 °F 73% 29.93 in 10.0 mi SW 9.2 mph - N/A   Scattered Clouds
3:35 PM 78.1 °F - 68.5 °F 72% 29.93 in 10.0 mi WSW 9.2 mph - N/A   Scattered Clouds
3:55 PM 79.2 °F - 68.7 °F 70% 29.92 in 10.0 mi WSW 12.7 mph - N/A   Clear
4:15 PM 79.3 °F - 68.7 °F 70% 29.92 in 10.0 mi WSW 10.4 mph - N/A   Scattered Clouds
4:35 PM 79.7 °F - 68.0 °F 67% 29.91 in 10.0 mi WSW 10.4 mph - N/A   Scattered Clouds
4:55 PM 78.8 °F - 68.2 °F 70% 29.92 in 10.0 mi WSW 6.9 mph - N/A   Scattered Clouds
5:15 PM 79.3 °F - 68.2 °F 69% 29.91 in 10.0 mi WSW 8.1 mph - N/A   Scattered Clouds
5:35 PM 79.9 °F - 67.1 °F 65% 29.90 in 10.0 mi West 11.5 mph - N/A   Scattered Clouds
5:55 PM 80.1 °F 82.3 °F 66.7 °F 64% 29.90 in 10.0 mi West 9.2 mph - N/A   Scattered Clouds
6:15 PM 79.9 °F - 67.5 °F 66% 29.90 in 10.0 mi West 11.5 mph - N/A   Scattered Clouds
6:35 PM 79.9 °F - 67.6 °F 66% 29.90 in 10.0 mi West 9.2 mph - N/A   Scattered Clouds
6:55 PM 79.5 °F - 67.5 °F 66% 29.90 in 10.0 mi West 5.8 mph - N/A   Scattered Clouds
7:15 PM 79.0 °F - 68.2 °F 69% 29.90 in 10.0 mi WSW 6.9 mph - N/A   Scattered Clouds
7:35 PM 78.3 °F - 68.0 °F 71% 29.90 in 10.0 mi West 5.8 mph - N/A   Clear
7:55 PM 77.4 °F - 67.6 °F 72% 29.90 in 10.0 mi WSW 5.8 mph - N/A   Clear
8:15 PM 75.6 °F - 68.7 °F 79% 29.90 in 10.0 mi WSW 4.6 mph - N/A   Clear
8:35 PM 73.9 °F - 68.9 °F 84% 29.90 in 10.0 mi WSW 4.6 mph - N/A   Clear
8:55 PM 72.7 °F - 68.5 °F 87% 29.90 in 10.0 mi SW 4.6 mph - N/A   Clear
9:15 PM 72.5 °F - 68.5 °F 87% 29.91 in 10.0 mi WSW 4.6 mph - N/A   Clear
9:35 PM 71.2 °F - 68.5 °F 91% 29.91 in 10.0 mi SSW 4.6 mph - N/A   Clear
9:55 PM 70.0 °F - 68.4 °F 95% 29.92 in 10.0 mi SW 4.6 mph - N/A   Clear
10:15 PM 69.4 °F - 68.0 °F 95% 29.92 in 10.0 mi SSW 4.6 mph - N/A   Clear
10:35 PM 68.9 °F - 67.5 °F 95% 29.91 in 10.0 mi South 3.5 mph - N/A   Clear
10:55 PM 68.7 °F - 67.3 °F 95% 29.92 in 10.0 mi Calm Calm - N/A   Clear
11:15 PM 68.0 °F - 66.7 °F 96% 29.93 in 10.0 mi Calm Calm - N/A   Clear
11:35 PM 67.1 °F - 66.4 °F 98% 29.93 in 10.0 mi South 3.5 mph - N/A   Clear
11:55 PM 66.9 °F - 66.4 °F 98% 29.93 in 10.0 mi SSW 4.6 mph - N/A   Clear